Beru Airport


Codes: NGBR/BEZ
Name: Beru Airport
City: Beru
Country: Kiribati
Elevation: 6 ft.

Photos at Beru Airport


   Photos courtesy of SpottingLog. You can add your own sightings and photos by signing up for a free trial today.



No photos found.

Weather at Beru Airport


Time (UTC)DescriptionTempratureWindCloud coverageVisibilityPressureHumidity
25-Jun-2024 15:00Broken Clouds29°C18 mph, E75%10000m1010hPa76%
25-Jun-2024 18:00Light Rain29°C16 mph, E88%10000m1009hPa75%
25-Jun-2024 21:00Light Rain29°C18 mph, E93%10000m1011hPa76%
26-Jun-2024 00:00Light Rain29°C16 mph, E60%10000m1010hPa73%
26-Jun-2024 03:00Scattered Clouds29°C16 mph, E38%10000m1008hPa74%
26-Jun-2024 06:00Light Rain29°C18 mph, E50%10000m1008hPa74%
26-Jun-2024 09:00Few Clouds29°C18 mph, E19%10000m1010hPa74%
26-Jun-2024 12:00Few Clouds29°C16 mph, E16%10000m1009hPa72%
26-Jun-2024 15:00Scattered Clouds29°C16 mph, E25%10000m1008hPa69%
26-Jun-2024 18:00Broken Clouds29°C16 mph, E62%10000m1009hPa70%
26-Jun-2024 21:00Broken Clouds29°C16 mph, E52%10000m1010hPa69%
27-Jun-2024 00:00Broken Clouds29°C16 mph, E64%10000m1009hPa75%
27-Jun-2024 03:00Light Rain29°C18 mph, E62%10000m1007hPa75%
27-Jun-2024 06:00Broken Clouds29°C18 mph, E81%10000m1008hPa69%
27-Jun-2024 09:00Overcast Clouds29°C18 mph, E100%10000m1010hPa67%
27-Jun-2024 12:00Overcast Clouds29°C18 mph, E100%10000m1009hPa67%
27-Jun-2024 15:00Overcast Clouds29°C18 mph, E100%10000m1008hPa69%
27-Jun-2024 18:00Overcast Clouds29°C16 mph, E86%10000m1009hPa69%
27-Jun-2024 21:00Overcast Clouds29°C18 mph, SE100%10000m1010hPa70%
28-Jun-2024 00:00Overcast Clouds29°C16 mph, E95%10000m1009hPa73%
28-Jun-2024 03:00Scattered Clouds29°C18 mph, E46%10000m1008hPa71%
28-Jun-2024 06:00Light Rain29°C16 mph, E53%10000m1008hPa76%
28-Jun-2024 09:00Light Rain29°C16 mph, E79%10000m1010hPa78%
28-Jun-2024 12:00Light Rain29°C16 mph, E87%10000m1009hPa79%
28-Jun-2024 15:00Light Rain28°C16 mph, E100%10000m1008hPa81%
28-Jun-2024 18:00Light Rain28°C18 mph, E99%10000m1009hPa78%
28-Jun-2024 21:00Light Rain29°C22 mph, E88%10000m1010hPa72%
29-Jun-2024 00:00Broken Clouds29°C20 mph, E67%10000m1009hPa70%
29-Jun-2024 03:00Scattered Clouds29°C18 mph, E27%10000m1007hPa67%
29-Jun-2024 06:00Broken Clouds29°C16 mph, E54%10000m1008hPa70%
29-Jun-2024 09:00Broken Clouds29°C16 mph, E65%10000m1009hPa70%
29-Jun-2024 12:00Broken Clouds29°C13 mph, E72%10000m1009hPa73%
29-Jun-2024 15:00Light Rain28°C13 mph, E62%10000m1008hPa76%
29-Jun-2024 18:00Broken Clouds29°C13 mph, E68%10000m1008hPa76%
29-Jun-2024 21:00Light Rain29°C16 mph, E84%10000m1010hPa76%
30-Jun-2024 00:00Broken Clouds29°C13 mph, E78%10000m1008hPa76%
30-Jun-2024 03:00Scattered Clouds29°C13 mph, E45%10000m1006hPa72%
30-Jun-2024 06:00Broken Clouds29°C16 mph, E62%10000m1007hPa73%
30-Jun-2024 09:00Overcast Clouds29°C16 mph, E100%10000m1009hPa73%
30-Jun-2024 12:00Light Rain28°C13 mph, E98%10000m1008hPa78%